Find Jilin-1 Linqqiao Yanzheng

NORAD ID: 40958 Int'l Des: 2015-057 Owner: CGSTL Country: CN Constellation: jilin-1 operational
LEOCIRCULARRETROGRADESSO

リアルタイム位置

3D地球を読み込み中...

Jilin-1 Linqqiao Yanzhengについて

説明を読み込み中...

次回通過

Passes for default location (London). Set your location on the main map for personalized predictions.

高度履歴

Loading altitude history...

軌道要素

1 40958U 15057A 26139.81518786 .00000526 00000-0 81830-4 0 9996
2 40958 97.6675 134.5972 0017375 10.0805 350.0751 14.76743525571127
Epoch: May 19, 2026 • Age: 6 hours

現在のステータス

高度 653.4 km
速度 7.53 km/s
衛星直下点 10.42°N, 60.4°E
打ち上げ日 Oct 7, 2015
運用期間 10.6 years
タイプ earth observation

技術仕様

分類 Payload
質量 50.00 kg
乾燥質量 50.00 kg
総質量 50.00 kg
長さ 0.60 m
直径 0.40 m
スパン 0.60 m
形状 Box
製造者 HARB/CIOMP
バスタイプ JL-1
フェーズステータス In Orbit
所有者/国 CGSTL/CN

Most Searched